Regional Weather Roundup
Issued by NWS

Home | Current Version | Previous Version | Graphics & Text | Print | Product List | Glossary On
Versions: 1 2 3 4 5 6 7 8 9 10 11 12 13 14 15 16 17 18 19 20 21 22 23 24 25 26 27 28 29 30 31 32 33 34 35 36 37 38 39 40 41 42 43 44 45 46 47 48 49 50
000
ASUS43 KLSX 250907
RWRMO

WEATHER SUMMARY FOR MISSOURI
NATIONAL WEATHER SERVICE SPRINGFIELD MO
400 AM CDT SAT APR 25 2015

NOTE: "FAIR" INDICATES FEW OR NO CLOUDS BELOW 12,000 FEET WITH NO
       SIGNIFICANT WEATHER AND/OR OBSTRUCTIONS TO VISIBILITY.
       CURRENT SKY AND/OR WEATHER CONDITIONS ARE NOT AVAILABLE FOR
       CHILLICOTHE AND FARMINGTON.

MOZ001>031-035>038-043-044-053-054-251000-
...NORTHERN AND WESTERN MISSOURI...

CITY           SKY/WX    TMP DP  RH WIND       PRES   REMARKS
KANSAS CTY INT LGT RAIN  57  55  93 S14       29.45F
KANSAS C DTWN  CLOUDY    59  54  83 S16G23    29.47R
LEE`S SUMMIT   CLOUDY    56  54  93 S8        29.49S
ST JOSEPH      RAIN      58  55  90 E15       29.40F FOG
CHILLICOTHE      N/A     55  53  93 E7        29.50F
KIRKSVILLE     CLOUDY    53  50  89 E12       29.54F

$$
MOZ066>068-077>081-088>096-101>105-251000-
...SOUTHWEST MISSOURI...

CITY           SKY/WX    TMP DP  RH WIND       PRES   REMARKS
SPRINGFIELD    MOCLDY    59  57  93 S18       29.51F
JOPLIN         PTCLDY    61  57  87 S16       29.48F

$$
MOZ032>034-039>042-045>050-055>058-069>072-251000-
...CENTRAL MISSOURI...

CITY           SKY/WX    TMP DP  RH WIND       PRES   REMARKS
COLUMBIA       LGT RAIN  54  53  97 SE10G17   29.54F
JEFFERSON CITY CLOUDY    56  52  86 E9        29.55F
ROLLA          CLOUDY    54  53  97 SE14      29.55F
SEDALIA        CLOUDY    58  54  86 SE14      29.50F
WHITEMAN AFB   MOCLDY    57  55  94 SE7       29.47F
WARRENSBURG    CLOUDY    55  52  88 SE8       29.48S
OSAGE BEACH    CLOUDY    57  54  88 SE6       29.53F

$$
MOZ051-052-059>065-251000-
...EAST CENTRAL MISSOURI...

CITY           SKY/WX    TMP DP  RH WIND       PRES   REMARKS
ST LOUIS INTL  CLOUDY    56  48  74 SE10      29.63F
SPIRIT OF STL  CLOUDY    54  48  80 E5        29.61F
ST CHARLES     CLOUDY    54  47  77 SE8       29.62F

$$
MOZ072>076-082>087-097>100-106>115-251000-
...SOUTH CENTRAL AND SOUTHEAST MISSOURI...

CITY           SKY/WX    TMP DP  RH WIND       PRES   REMARKS
CAPE GIRARDEAU CLOUDY    56  55  97 E7        29.66F
FARMINGTON     CLOUDY    54  52  94 SE8       29.65F VSB 1/2
POPLAR BLUFF   CLOUDY    57  54  89 SE6       29.63F
WEST PLAINS    FOG       54  53  97 SE5       29.60F VSB 1/2

$$



USA.gov is the U.S. government's official web portal to all federal, state and local government web resources and services.